When you browse on this site, cookies collect data to enhance your experience and personalize the content and advertising you see.
Visit our Privacy Policy to learn more. By continuing to use the site, you agree to this use of cookies and data.
  • In Latvia
  • List of Countries
  • For 7 days
  • Water Temperature
  • Weather Map
  • Weather Widgets
  • user-avatar
    Login

    Hourly Weather Kitzbuhel

    Today, 1 June, Monday

    Time Temperature Precipitation Wind Pressure Humidity
    00:00 +7°C° 0 mm 1 mps 678 mmHg 93%
    01:00 +6°C° 0 mm 1 mps 678 mmHg 94%
    02:00 +6°C° 0 mm 1 mps 678 mmHg 94%
    03:00 +6°C° 0 mm 1 mps 678 mmHg 94%
    04:00 +5°C° 0 mm 1 mps 677 mmHg 94%
    05:00 +7°C° 0 mm 1 mps 678 mmHg 87%
    06:00 +9°C° 0 mm 0 mps 678 mmHg 80%
    07:00 +11°C° 0 mm 0 mps 679 mmHg 72%
    08:00 +14°C° 0 mm 1 mps 679 mmHg 66%
    09:00 +16°C° 0 mm 1 mps 679 mmHg 60%
    10:00 +18°C° 0 mm 2 mps 680 mmHg 54%
    11:00 +18°C° 0 mm 2 mps 680 mmHg 52%
    12:00 +19°C° 0 mm 2 mps 679 mmHg 49%
    13:00 +19°C° 0 mm 2 mps 679 mmHg 47%
    14:00 +19°C° 0 mm 2 mps 679 mmHg 49%
    15:00 +19°C° 0 mm 3 mps 679 mmHg 51%
    16:00 +19°C° 0 mm 3 mps 679 mmHg 53%
    17:00 +18°C° 0 mm 2 mps 679 mmHg 63%
    18:00 +16°C° 0 mm 2 mps 678 mmHg 72%
    19:00 +15°C° 0 mm 1 mps 678 mmHg 82%
    20:00 +13°C° 0 mm 1 mps 678 mmHg 86%
    21:00 +11°C° 0 mm 1 mps 678 mmHg 91%
    22:00 +9°C° 0 mm 0 mps 678 mmHg 95%
    23:00 +9°C° 0 mm 1 mps 678 mmHg 95%

    Tomorrow, 2 June, Tuesday

    Time Temperature Precipitation Wind Pressure Humidity
    00:00 +9°C° 0 mm 1 mps 678 mmHg 95%
    01:00 +9°C° 0 mm 1 mps 678 mmHg 95%
    02:00 +8°C° 0 mm 1 mps 678 mmHg 95%
    03:00 +8°C° 0 mm 1 mps 677 mmHg 95%
    04:00 +8°C° 0 mm 1 mps 677 mmHg 95%
    05:00 +10°C° 0 mm 1 mps 677 mmHg 90%
    06:00 +11°C° 0 mm 0 mps 678 mmHg 85%
    07:00 +12°C° 0 mm 0 mps 678 mmHg 79%
    08:00 +15°C° 0 mm 1 mps 678 mmHg 70%
    09:00 +18°C° 0 mm 1 mps 678 mmHg 61%
    10:00 +18°C° 0 mm 2 mps 678 mmHg 52%
    11:00 +19°C° 0 mm 2 mps 678 mmHg 49%
    12:00 +19°C° 0 mm 3 mps 678 mmHg 47%
    13:00 +20°C° 0 mm 3 mps 678 mmHg 44%
    14:00 +19°C° 0.1 mm 3 mps 677 mmHg 46%
    15:00 +19°C° 0.1 mm 3 mps 677 mmHg 47%
    16:00 +19°C° 0.1 mm 2 mps 676 mmHg 49%
    17:00 +17°C° 0 mm 2 mps 676 mmHg 57%
    18:00 +16°C° 0 mm 2 mps 675 mmHg 66%
    19:00 +14°C° 0 mm 1 mps 675 mmHg 74%
    20:00 +13°C° 0 mm 1 mps 675 mmHg 80%
    21:00 +11°C° 0 mm 1 mps 675 mmHg 85%
    22:00 +9°C° 0 mm 1 mps 674 mmHg 90%
    23:00 +9°C° 0 mm 1 mps 674 mmHg 90%

    Day after tomorrow, 3 June, Wednesday

    Time Temperature Precipitation Wind Pressure Humidity
    00:00 +8°C° 0 mm 1 mps 674 mmHg 90%
    01:00 +8°C° 0 mm 1 mps 674 mmHg 90%
    02:00 +8°C° 0 mm 1 mps 673 mmHg 88%
    03:00 +8°C° 0 mm 1 mps 673 mmHg 87%
    04:00 +7°C° 0 mm 1 mps 673 mmHg 85%
    05:00 +10°C° 0 mm 1 mps 673 mmHg 77%
    06:00 +11°C° 0 mm 0 mps 673 mmHg 69%
    07:00 +13°C° 0 mm 0 mps 673 mmHg 60%
    08:00 +15°C° 0 mm 0 mps 673 mmHg 54%
    09:00 +19°C° 0 mm 1 mps 674 mmHg 47%
    10:00 +21°C° 0 mm 1 mps 674 mmHg 41%
    11:00 +22°C° 0 mm 1 mps 673 mmHg 38%
    12:00 +21°C° 0 mm 2 mps 673 mmHg 35%
    13:00 +23°C° 0 mm 2 mps 673 mmHg 33%
    14:00 +23°C° 0 mm 2 mps 673 mmHg 36%
    15:00 +21°C° 0 mm 2 mps 672 mmHg 38%
    16:00 +21°C° 0 mm 2 mps 672 mmHg 41%
    17:00 +19°C° 0.1 mm 2 mps 671 mmHg 53%
    18:00 +19°C° 0.1 mm 1 mps 671 mmHg 65%
    19:00 +16°C° 0.1 mm 1 mps 670 mmHg 76%
    20:00 +14°C° 0.1 mm 1 mps 670 mmHg 79%
    21:00 +13°C° 0.1 mm 1 mps 670 mmHg 83%
    22:00 +10°C° 0.1 mm 2 mps 670 mmHg 86%
    23:00 +10°C° 0 mm 2 mps 670 mmHg 85%

    4 June, Thursday

    Time Temperature Precipitation Wind Pressure Humidity
    00:00 +10°C° 0 mm 2 mps 669 mmHg 84%
    01:00 +10°C° 0 mm 2 mps 669 mmHg 83%
    02:00 +10°C° 0 mm 2 mps 669 mmHg 84%
    03:00 +10°C° 0 mm 2 mps 668 mmHg 84%
    04:00 +9°C° 0 mm 2 mps 668 mmHg 84%
    05:00 +12°C° 0 mm 2 mps 668 mmHg 80%
    06:00 +14°C° 0 mm 1 mps 669 mmHg 75%
    07:00 +15°C° 0 mm 1 mps 669 mmHg 71%
    08:00 +18°C° 0 mm 1 mps 669 mmHg 65%
    09:00 +19°C° 0 mm 1 mps 669 mmHg 59%
    10:00 +21°C° 0 mm 1 mps 670 mmHg 53%
    11:00 +21°C° 0.1 mm 1 mps 669 mmHg 54%
    12:00 +21°C° 0.1 mm 2 mps 669 mmHg 55%
    13:00 +21°C° 0.1 mm 2 mps 668 mmHg 56%
    14:00 +20°C° 0.6 mm 2 mps 668 mmHg 64%
    15:00 +19°C° 0.6 mm 2 mps 668 mmHg 73%
    16:00 +18°C° 0.6 mm 2 mps 667 mmHg 81%
    17:00 +16°C° 0.9 mm 2 mps 667 mmHg 85%
    18:00 +15°C° 0.9 mm 1 mps 667 mmHg 90%
    19:00 +14°C° 0.9 mm 1 mps 667 mmHg 94%
    20:00 +13°C° 0.1 mm 1 mps 667 mmHg 95%
    21:00 +13°C° 0.1 mm 1 mps 667 mmHg 95%
    22:00 +12°C° 0.1 mm 1 mps 667 mmHg 96%
    23:00 +12°C° 0 mm 1 mps 666 mmHg 96%

    5 June, Friday

    Time Temperature Precipitation Wind Pressure Humidity
    00:00 +12°C° 0 mm 1 mps 666 mmHg 96%
    01:00 +12°C° 0 mm 1 mps 666 mmHg 96%
    02:00 +12°C° 0.6 mm 1 mps 666 mmHg 97%
    03:00 +12°C° 0.6 mm 1 mps 666 mmHg 97%
    04:00 +12°C° 0.6 mm 1 mps 666 mmHg 98%
    05:00 +11°C° 3.8 mm 1 mps 666 mmHg 98%
    06:00 +11°C° 3.8 mm 1 mps 666 mmHg 98%
    07:00 +10°C° 3.8 mm 1 mps 666 mmHg 98%
    08:00 +10°C° 2.7 mm 1 mps 666 mmHg 98%
    09:00 +10°C° 2.7 mm 1 mps 666 mmHg 97%
    10:00 +10°C° 2.7 mm 1 mps 667 mmHg 97%
    11:00 +10°C° 0.9 mm 1 mps 667 mmHg 97%
    12:00 +10°C° 0.9 mm 1 mps 667 mmHg 96%
    13:00 +9°C° 0.9 mm 0 mps 668 mmHg 95%
    14:00 +10°C° 0.5 mm 0 mps 668 mmHg 94%
    15:00 +10°C° 0.5 mm 0 mps 668 mmHg 92%
    16:00 +10°C° 0.5 mm 0 mps 668 mmHg 91%
    17:00 +11°C° 0.1 mm 1 mps 668 mmHg 90%
    18:00 +12°C° 0.1 mm 1 mps 668 mmHg 88%
    19:00 +12°C° 0.1 mm 1 mps 668 mmHg 87%
    20:00 +11°C° 0 mm 1 mps 668 mmHg 88%
    21:00 +9°C° 0 mm 1 mps 668 mmHg 90%
    22:00 +8°C° 0 mm 1 mps 668 mmHg 92%
    23:00 +8°C° 0 mm 1 mps 668 mmHg 91%

    6 June, Saturday

    Time Temperature Precipitation Wind Pressure Humidity
    00:00 +8°C° 0 mm 1 mps 668 mmHg 90%
    01:00 +8°C° 0 mm 1 mps 668 mmHg 89%
    02:00 +8°C° 0 mm 1 mps 668 mmHg 89%
    03:00 +7°C° 0 mm 1 mps 668 mmHg 90%
    04:00 +7°C° 0 mm 1 mps 668 mmHg 90%
    05:00 +9°C° 0 mm 1 mps 668 mmHg 85%
    06:00 +11°C° 0 mm 1 mps 669 mmHg 80%
    07:00 +12°C° 0 mm 0 mps 669 mmHg 75%
    08:00 +13°C° 0 mm 0 mps 670 mmHg 71%
    09:00 +15°C° 0 mm 1 mps 670 mmHg 67%
    10:00 +18°C° 0 mm 1 mps 670 mmHg 64%
    11:00 +18°C° 0.1 mm 1 mps 670 mmHg 66%
    12:00 +16°C° 0.1 mm 1 mps 670 mmHg 67%
    13:00 +16°C° 0.1 mm 2 mps 670 mmHg 69%
    14:00 +16°C° 0.2 mm 2 mps 670 mmHg 76%
    15:00 +15°C° 0.2 mm 1 mps 670 mmHg 82%
    16:00 +14°C° 0.2 mm 1 mps 670 mmHg 89%
    17:00 +13°C° 0.5 mm 1 mps 670 mmHg 92%
    18:00 +12°C° 0.5 mm 1 mps 670 mmHg 95%
    19:00 +11°C° 0.5 mm 1 mps 670 mmHg 98%
    20:00 +11°C° 0.4 mm 1 mps 671 mmHg 98%
    21:00 +11°C° 0.4 mm 1 mps 671 mmHg 98%
    22:00 +10°C° 0.4 mm 0 mps 671 mmHg 98%
    23:00 +9°C° 0.3 mm 0 mps 671 mmHg 98%
    Show more